Viroqua, WI

1:16 AM CST on December 17, 2017 (GMT -0600)
Viroqua

Weather History for KY51 - March, 2013

Change the Weather History Date:

Tuesday, March 5, 2013

  Actual Average (KCMY) Record (KCMY)
Temperature  
Mean Temperature 26 °F -  
Max Temperature 28 °F 38 °F 61 °F (1983)
Min Temperature 24 °F 19 °F -17 °F (1960)
Degree Days  
Heating Degree Days 39    
Moisture  
Dew Point 25 °F    
Average Humidity 93    
Maximum Humidity 100    
Minimum Humidity 86    
Precipitation  
Precipitation 0.06 in - - ()
Sea Level Pressure  
Sea Level Pressure 29.98 in    
Wind  
Wind Speed 11 mph (NNE)    
Max Wind Speed 14 mph    
Max Gust Speed 20 mph    
Visibility 4 miles    
Events      
Averages and records for this station are not official NWS values.
T = Trace of Precipitation, MM = Missing Value Source: NWS Daily Summary

Daily Weather History Graph

Daily Weather History Graph

Search for Another Location

Airport or City:

Trip Planner

Search our weather history database for the weather conditions in past years. The results will help you decide how hot, cold, wet, or windy it might be!

Date:

Astronomy

Mar. 05, 2013 Rise Set
Actual Time 6:32 AM CST 5:57 PM CST
Civil Twilight 6:04 AM CST 6:26 PM CST
Nautical Twilight 5:31 AM CST 6:59 PM CST
Astronomical Twilight 4:57 AM CST 7:33 PM CST
Moon 1:53 AM CST (3/5) 11:29 AM CST (3/5)
Length of Visible Light 12h 22m
Length of Day
11h 24m
Last Quarter, 40% of the Moon is Illuminated
Mar 5
Last Quarter
Mar 11
New
Mar 19
First Quarter
Mar 27
Full
Apr 2
Last Quarter

Hourly Weather History & Observations

Time (CST) Temp. Windchill Dew Point Humidity Pressure Visibility Wind Dir Wind Speed Gust Speed Precip Events Conditions
12:35 AM 26.6 °F 16.8 °F 23.0 °F 86% 29.98 in 5.0 mi East 10.4 mph - N/A   Overcast
12:55 AM 26.6 °F 16.2 °F 23.0 °F 86% 29.97 in 10.0 mi East 11.5 mph - N/A   Overcast
1:15 AM 26.6 °F 16.2 °F 23.0 °F 86% 29.97 in 10.0 mi East 11.5 mph - N/A   Overcast
1:35 AM 26.6 °F 16.8 °F 23.0 °F 86% 29.97 in 10.0 mi East 10.4 mph - N/A   Overcast
1:55 AM 26.6 °F 16.8 °F 23.0 °F 86% 29.96 in 3.0 mi East 10.4 mph - N/A   Overcast
2:15 AM 26.6 °F 16.8 °F 23.0 °F 86% 29.94 in 4.0 mi East 10.4 mph - N/A   Overcast
2:55 AM 26.6 °F 15.2 °F 23.0 °F 86% 29.93 in 7.0 mi East 13.8 mph - N/A   Overcast
3:15 AM 26.6 °F 16.2 °F 23.0 °F 86% 29.93 in 2.5 mi East 11.5 mph - N/A   Overcast
3:35 AM 26.6 °F 16.8 °F 23.0 °F 86% 29.92 in 4.0 mi East 10.4 mph - N/A   Overcast
3:55 AM 26.6 °F 16.2 °F 23.0 °F 86% 29.92 in 2.5 mi East 11.5 mph - N/A   Overcast
4:15 AM 26.6 °F 16.8 °F 26.6 °F 100% 29.91 in 1.5 mi East 10.4 mph - N/A   Overcast
4:35 AM 26.6 °F 17.5 °F 26.6 °F 100% 29.91 in 1.8 mi East 9.2 mph - N/A   Overcast
4:55 AM 26.6 °F 18.2 °F 26.6 °F 100% 29.91 in 1.2 mi East 8.1 mph - N/A   Overcast
5:15 AM 26.6 °F 18.2 °F 26.6 °F 100% 29.91 in 1.8 mi East 8.1 mph - 0.01 in   Overcast
5:35 AM 26.6 °F 17.5 °F 26.6 °F 100% 29.92 in 1.8 mi ENE 9.2 mph - 0.01 in   Overcast
6:15 AM 26.6 °F 19.1 °F 26.6 °F 100% 29.92 in 1.5 mi ENE 6.9 mph - N/A   Overcast
6:35 AM 26.6 °F 18.2 °F 26.6 °F 100% 29.92 in 1.2 mi ENE 8.1 mph - 0.01 in   Overcast
7:15 AM 26.6 °F 17.5 °F 26.6 °F 100% 29.92 in 1.5 mi ENE 9.2 mph - N/A   Overcast
7:35 AM 26.6 °F 19.1 °F 26.6 °F 100% 29.92 in 1.0 mi NE 6.9 mph - N/A   Overcast
7:55 AM 26.6 °F 20.0 °F 26.6 °F 100% 29.93 in 0.8 mi NE 5.8 mph - 0.01 in   Overcast
8:15 AM 26.6 °F 19.1 °F 26.6 °F 100% 29.93 in 0.5 mi ENE 6.9 mph - 0.01 in   Overcast
8:35 AM 26.6 °F 16.8 °F 26.6 °F 100% 29.93 in 0.5 mi ENE 10.4 mph - 0.02 in   Overcast
8:55 AM 26.6 °F 16.8 °F 26.6 °F 100% 29.93 in 0.8 mi ENE 10.4 mph - 0.02 in   Overcast
9:15 AM 26.6 °F 16.2 °F 26.6 °F 100% 29.92 in 0.8 mi NE 11.5 mph - N/A   Overcast
9:35 AM 26.6 °F 16.2 °F 26.6 °F 100% 29.91 in 0.8 mi ENE 11.5 mph - N/A   Overcast
9:55 AM 26.6 °F 16.2 °F 26.6 °F 100% 29.91 in 0.2 mi ENE 11.5 mph - N/A   Overcast
10:15 AM 26.6 °F 16.2 °F 26.6 °F 100% 29.91 in 0.2 mi ENE 11.5 mph - 0.01 in   Overcast
10:35 AM 26.6 °F 16.2 °F 26.6 °F 100% 29.91 in 0.8 mi ENE 11.5 mph - 0.01 in   Overcast
10:55 AM 28.4 °F 17.5 °F 24.8 °F 86% 29.91 in 0.8 mi NE 13.8 mph - 0.01 in   Overcast
11:15 AM 28.4 °F 18.5 °F 24.8 °F 86% 29.91 in 1.0 mi NE 11.5 mph - N/A   Overcast
11:35 AM 28.4 °F 18.0 °F 24.8 °F 86% 29.91 in 1.2 mi ENE 12.7 mph - N/A   Overcast
11:55 AM 28.4 °F 19.1 °F 24.8 °F 86% 29.91 in 1.8 mi NE 10.4 mph - N/A   Overcast
12:15 PM 28.4 °F 19.7 °F 24.8 °F 86% 29.91 in 1.5 mi NNE 9.2 mph - N/A   Overcast
12:35 PM 28.4 °F 18.5 °F 24.8 °F 86% 29.91 in 3.0 mi NNE 11.5 mph - N/A   Overcast
12:55 PM 28.4 °F 18.5 °F 24.8 °F 86% 29.92 in 1.5 mi NNE 11.5 mph - N/A   Overcast
1:15 PM 28.4 °F 18.0 °F 24.8 °F 86% 29.92 in 1.0 mi NNE 12.7 mph - N/A   Overcast
1:35 PM 28.4 °F 19.1 °F 26.6 °F 93% 29.92 in 1.0 mi North 10.4 mph - N/A   Overcast
1:55 PM 28.4 °F 18.5 °F 26.6 °F 93% 29.93 in 0.8 mi NNE 11.5 mph - N/A   Overcast
2:15 PM 28.4 °F 18.5 °F 26.6 °F 93% 29.93 in 1.0 mi North 11.5 mph - N/A   Overcast
2:35 PM 28.4 °F 18.5 °F 26.6 °F 93% 29.94 in 1.0 mi North 11.5 mph - N/A   Overcast
2:55 PM 28.4 °F 18.5 °F 26.6 °F 93% 29.94 in 1.2 mi North 11.5 mph - N/A   Overcast
3:15 PM 28.4 °F 19.1 °F 26.6 °F 93% 29.95 in 1.2 mi North 10.4 mph - N/A   Overcast
3:35 PM 28.4 °F 18.0 °F 26.6 °F 93% 29.96 in 1.5 mi North 12.7 mph 17.3 mph N/A   Overcast
3:55 PM 28.4 °F 20.4 °F 26.6 °F 93% 29.97 in 1.2 mi North 8.1 mph - N/A   Overcast
4:15 PM 28.4 °F 18.0 °F 26.6 °F 93% 29.98 in 1.8 mi North 12.7 mph - N/A   Overcast
4:35 PM 28.4 °F 17.5 °F 26.6 °F 93% 29.98 in 2.0 mi North 13.8 mph - N/A   Overcast
4:55 PM 26.6 °F 15.2 °F 24.8 °F 93% 30.00 in 3.0 mi North 13.8 mph - N/A   Overcast
5:15 PM 26.6 °F 16.2 °F 26.6 °F 100% 30.00 in 3.0 mi North 11.5 mph 17.3 mph N/A   Overcast
5:35 PM 26.6 °F 16.2 °F 26.6 °F 100% 30.02 in 3.0 mi North 11.5 mph - N/A   Overcast
5:55 PM 26.6 °F 16.2 °F 26.6 °F 100% 30.03 in 3.0 mi North 11.5 mph - N/A   Overcast
6:15 PM 26.6 °F 15.7 °F 26.6 °F 100% 30.03 in 4.0 mi North 12.7 mph - N/A   Overcast
6:35 PM 26.6 °F 16.2 °F 24.8 °F 93% 30.05 in 7.0 mi North 11.5 mph - N/A   Overcast
6:55 PM 26.6 °F 15.7 °F 24.8 °F 93% 30.05 in 7.0 mi North 12.7 mph - N/A   Overcast
7:15 PM 26.6 °F 16.2 °F 23.0 °F 86% 30.06 in 10.0 mi North 11.5 mph - N/A   Overcast
7:35 PM 26.6 °F 16.8 °F 24.8 °F 93% 30.07 in 10.0 mi North 10.4 mph - N/A   Mostly Cloudy
7:55 PM 26.6 °F 15.7 °F 24.8 °F 93% 30.07 in 10.0 mi North 12.7 mph - N/A   Overcast
8:15 PM 26.6 °F 16.2 °F 24.8 °F 93% 30.08 in 10.0 mi North 11.5 mph 17.3 mph N/A   Overcast
8:35 PM 26.6 °F 16.8 °F 23.0 °F 86% 30.09 in 10.0 mi NNW 10.4 mph - N/A   Overcast
8:55 PM 26.6 °F 16.2 °F 23.0 °F 86% 30.10 in 10.0 mi North 11.5 mph - N/A   Overcast
9:15 PM 26.6 °F 16.8 °F 23.0 °F 86% 30.10 in 10.0 mi NNW 10.4 mph - N/A   Overcast
9:35 PM 26.6 °F 16.8 °F 23.0 °F 86% 30.11 in 10.0 mi NNW 10.4 mph - N/A   Overcast
9:55 PM 26.6 °F 18.2 °F 23.0 °F 86% 30.12 in 10.0 mi NNW 8.1 mph - N/A   Overcast
10:15 PM 26.6 °F 16.8 °F 23.0 °F 86% 30.12 in 10.0 mi NNW 10.4 mph - N/A   Overcast
10:35 PM 24.8 °F 14.0 °F 23.0 °F 93% 30.13 in 10.0 mi NNW 11.5 mph 19.6 mph N/A   Overcast
10:55 PM 24.8 °F 14.6 °F 23.0 °F 93% 30.13 in 10.0 mi NNW 10.4 mph - N/A   Overcast
11:15 PM 24.8 °F 13.4 °F 23.0 °F 93% 30.14 in 10.0 mi NNW 12.7 mph - N/A   Overcast
11:35 PM 24.8 °F 12.9 °F 23.0 °F 93% 30.14 in 10.0 mi NNW 13.8 mph 18.4 mph N/A   Overcast
11:55 PM 24.8 °F 14.0 °F 23.0 °F 93% 30.14 in 10.0 mi NNW 11.5 mph - N/A   Overcast